Location: Days
(41.3591°N, 106.7339°W)
Time: 03:19:26
(UTC+00:00)

N. Korean satellite - Visible Passes

Search period start: 27 January 2022 00:00
Search period end: 06 February 2022 00:00
Orbit: 447 x 490 km, 97.3° (Epoch: 26 January)

Date Brightness Start Highest point End Pass type
(mag) Time Alt. Az. Time Alt. Az. Time Alt. Az.
27 Jan 9.1 11:36:33 10° NE 11:43:59 - SSE 11:39:00 21° E visible
27 Jan 7.7 13:09:31 10° NNW 13:12:27 23° WNW 13:13:04 22° W visible
28 Jan 6.6 12:39:49 10° N 12:43:22 53° WNW 12:44:00 46° WSW visible
29 Jan 7.1 12:10:34 10° NNE 12:14:10 60° E 12:14:58 46° SSE visible
30 Jan 8.8 11:41:46 10° NE 11:44:49 24° E 11:45:59 21° SE visible
30 Jan 7.9 13:15:04 10° NNW 13:17:48 20° WNW 13:20:03 12° WSW visible
31 Jan 10.0 11:14:20 10° ENE 11:15:19 11° E 11:16:17 10° ESE visible
31 Jan 6.8 12:45:12 10° N 12:48:41 45° WNW 12:51:10 17° SW visible
01 Feb 6.7 12:15:50 10° NNE 12:19:27 71° E 12:23:02 10° S visible
02 Feb 8.6 11:46:53 10° NE 11:50:04 28° E 11:53:12 10° SSE visible
02 Feb 8.0 13:20:30 10° NNW 13:22:59 18° WNW 13:25:26 10° WSW visible
03 Feb 9.8 11:18:55 10° ENE 11:20:33 13° E 11:22:10 10° ESE visible
03 Feb 7.0 12:50:28 10° N 12:53:52 38° WNW 12:57:12 10° SW visible
04 Feb 6.5 12:20:58 10° NNE 12:24:36 84° ESE 12:28:10 10° S visible
05 Feb 8.3 11:51:53 10° NNE 11:55:11 33° E 11:58:26 10° SSE visible
05 Feb 8.2 13:25:51 10° NNW 13:28:02 15° WNW 13:30:10 10° WSW visible
